| time (UTC) | temp F | wind direction | speed knots | gust knots | rain 1hr in | rain 24hr in | rain mn in | humidity % | barometer mb |
| 20260509200636 | 46 | 9 | 7.8 | 15.6 | 0.00 | 0.00 | 0.00 | 55 | 1004.4 |
| 20260509200356 | 46 | 337 | 9.6 | 15.6 | 0.00 | 0.00 | 0.00 | 57 | 1004.4 |
| 20260509200159 | 45 | 22 | 6.1 | 16.5 | 0.00 | 0.00 | 0.00 | 62 | 1004.4 |
| 20260509195701 | 43 | 334 | 5.2 | 16.5 | 0.00 | 0.00 | 0.00 | 65 | 1004.4 |
| 20260509195225 | 44 | 44 | 7.0 | 17.4 | 0.00 | 0.00 | 0.00 | 66 | 1004.2 |
| 20260509195122 | 44 | 44 | 7.0 | 17.4 | 0.00 | 0.00 | 0.00 | 66 | 1004.2 |
| 20260509194824 | 44 | 5 | 7.0 | 17.4 | 0.00 | 0.00 | 0.00 | 67 | 1004.1 |
| 20260509194625 | 44 | 307 | 7.8 | 17.4 | 0.00 | 0.00 | 0.00 | 67 | 1004.0 |
| 20260509194152 | 44 | 355 | 7.0 | 21.7 | 0.00 | 0.00 | 0.00 | 65 | 1003.8 |
| 20260509193636 | 45 | 291 | 7.8 | 21.7 | 0.00 | 0.00 | 0.00 | 60 | 1003.6 |
| 20260509193422 | 46 | 17 | 11.3 | 21.7 | 0.00 | 0.00 | 0.00 | 57 | 1003.5 |
| 20260509193318 | 46 | 17 | 11.3 | 21.7 | 0.00 | 0.00 | 0.00 | 57 | 1003.5 |
| 20260509193122 | 47 | 355 | 12.2 | 20.9 | 0.00 | 0.00 | 0.00 | 55 | 1003.4 |
| 20260509192619 | 48 | 341 | 9.6 | 20.9 | 0.00 | 0.00 | 0.00 | 42 | 1003.2 |
| 20260509192204 | 49 | 21 | 7.8 | 18.2 | 0.00 | 0.00 | 0.00 | 40 | 1003.1 |
| 20260509191910 | 49 | 272 | 9.6 | 18.2 | 0.00 | 0.00 | 0.00 | 39 | 1003.0 |
| 20260509191629 | 49 | 286 | 12.2 | 18.2 | 0.00 | 0.00 | 0.00 | 38 | 1002.9 |
| 20260509191133 | 49 | 261 | 8.7 | 26.9 | 0.00 | 0.00 | 0.00 | 40 | 1002.8 |
| 20260509190633 | 49 | 294 | 12.2 | 26.9 | 0.00 | 0.00 | 0.00 | 38 | 1002.8 |
| 20260509190359 | 49 | 321 | 17.4 | 26.9 | 0.00 | 0.00 | 0.00 | 38 | 1002.7 |
| 20260509190200 | 49 | 331 | 9.6 | 22.6 | 0.00 | 0.00 | 0.00 | 40 | 1002.6 |
| 20260509185659 | 49 | 299 | 13.9 | 20.9 | 0.00 | 0.00 | 0.00 | 40 | 1002.5 |
| 20260509185123 | 49 | 306 | 13.9 | 20.9 | 0.00 | 0.00 | 0.00 | 41 | 1002.4 |
| 20260509184850 | 49 | 302 | 13.0 | 20.9 | 0.00 | 0.00 | 0.00 | 40 | 1002.3 |
| 20260509184613 | 49 | 267 | 9.6 | 23.5 | 0.00 | 0.00 | 0.00 | 40 | 1002.2 |
| 20260509184120 | 49 | 296 | 9.6 | 23.5 | 0.00 | 0.00 | 0.00 | 40 | 1002.1 |
| 20260509183706 | 49 | 337 | 13.0 | 22.6 | 0.00 | 0.00 | 0.00 | 40 | 1002.0 |
| 20260509183329 | 49 | 301 | 9.6 | 21.7 | 0.00 | 0.00 | 0.00 | 39 | 1002.0 |
| 20260509183134 | 50 | 321 | 10.4 | 21.7 | 0.00 | 0.00 | 0.00 | 39 | 1001.7 |
| 20260509182620 | 50 | 281 | 13.9 | 22.6 | 0.00 | 0.00 | 0.00 | 37 | 1001.8 |
| 20260509182208 | 50 | 337 | 13.0 | 20.0 | 0.00 | 0.00 | 0.00 | 37 | 1001.5 |
| 20260509181908 | 50 | 336 | 12.2 | 22.6 | 0.00 | 0.00 | 0.00 | 37 | 1001.5 |
| 20260509181825 | 50 | 336 | 12.2 | 22.6 | 0.00 | 0.00 | 0.00 | 37 | 1001.5 |
| 20260509181730 | 50 | 323 | 13.0 | 22.6 | 0.00 | 0.00 | 0.00 | 37 | 1001.4 |
| 20260509181111 | 50 | 267 | 11.3 | 22.6 | 0.00 | 0.00 | 0.00 | 36 | 1001.3 |
| 20260509180654 | 51 | 316 | 12.2 | 24.3 | 0.00 | 0.00 | 0.00 | 35 | 1001.1 |
| 20260509180612 | 51 | 316 | 12.2 | 24.3 | 0.00 | 0.00 | 0.00 | 35 | 1001.1 |
| 20260509180315 | 52 | 346 | 12.2 | 24.3 | 0.00 | 0.00 | 0.00 | 34 | 1001.1 |
| 20260509180116 | 52 | 287 | 14.8 | 24.3 | 0.00 | 0.00 | 0.00 | 35 | 1001.1 |
| 20260509175701 | 51 | 311 | 15.6 | 22.6 | 0.00 | 0.00 | 0.00 | 34 | 1000.9 |
| 20260509175618 | 51 | 311 | 15.6 | 22.6 | 0.00 | 0.00 | 0.00 | 34 | 1000.9 |
| 20260509175145 | 52 | 274 | 13.0 | 22.6 | 0.00 | 0.00 | 0.00 | 34 | 1000.9 |
| 20260509174925 | 52 | 318 | 13.0 | 22.6 | 0.00 | 0.00 | 0.00 | 34 | 1000.9 |
| 20260509174704 | 51 | 325 | 14.8 | 22.6 | 0.00 | 0.00 | 0.00 | 33 | 1000.9 |
| 20260509174148 | 51 | 307 | 15.6 | 21.7 | 0.00 | 0.00 | 0.00 | 34 | 1000.9 |
| 20260509173652 | 50 | 289 | 12.2 | 25.2 | 0.00 | 0.00 | 0.00 | 34 | 1000.4 |
| 20260509173317 | 50 | 306 | 13.0 | 25.2 | 0.00 | 0.00 | 0.00 | 35 | 1000.6 |
| 20260509173140 | 51 | 310 | 13.9 | 25.2 | 0.00 | 0.00 | 0.00 | 35 | 1000.6 |
| 20260509172639 | 50 | 303 | 12.2 | 25.2 | 0.00 | 0.00 | 0.00 | 35 | 1000.6 |
| 20260509172123 | 51 | 311 | 11.3 | 23.5 | 0.00 | 0.00 | 0.00 | 34 | 1000.6 |
| 20260509171849 | 51 | 319 | 12.2 | 25.2 | 0.00 | 0.00 | 0.00 | 33 | 1000.4 |
| 20260509171651 | 52 | 287 | 13.0 | 25.2 | 0.00 | 0.00 | 0.00 | 33 | 1000.4 |
| 20260509171155 | 53 | 316 | 12.2 | 20.9 | 0.00 | 0.00 | 0.00 | 33 | 1000.3 |
| 20260509170620 | 52 | 309 | 11.3 | 19.1 | 0.00 | 0.00 | 0.00 | 34 | 1000.3 |
| 20260509170342 | 53 | 334 | 11.3 | 23.5 | 0.00 | 0.00 | 0.00 | 32 | 1000.2 |
| 20260509170124 | 53 | 327 | 9.6 | 23.5 | 0.00 | 0.00 | 0.00 | 34 | 1000.1 |
| 20260509165629 | 53 | 328 | 11.3 | 23.5 | 0.00 | 0.00 | 0.00 | 32 | 1000.0 |
| 20260509165133 | 52 | 323 | 11.3 | 20.9 | 0.00 | 0.00 | 0.00 | 34 | 1000.0 |
| 20260509164817 | 52 | 318 | 13.9 | 25.2 | 0.00 | 0.00 | 0.00 | 33 | 999.9 |
| 20260509164658 | 51 | 282 | 13.0 | 25.2 | 0.00 | 0.00 | 0.00 | 34 | 1000.1 |
| 20260509164121 | 51 | 332 | 16.5 | 26.9 | 0.00 | 0.00 | 0.00 | 33 | 1000.2 |
| 20260509163723 | 53 | 304 | 15.6 | 31.3 | 0.00 | 0.00 | 0.00 | 32 | 1000.0 |
| 20260509163640 | 53 | 304 | 15.6 | 31.3 | 0.00 | 0.00 | 0.00 | 32 | 1000.0 |
| 20260509163341 | 53 | 317 | 12.2 | 31.3 | 0.00 | 0.00 | 0.00 | 32 | 999.8 |
| 20260509163126 | 53 | 299 | 18.2 | 31.3 | 0.00 | 0.00 | 0.00 | 31 | 1000.0 |
| 20260509162651 | 52 | 339 | 10.4 | 20.0 | 0.00 | 0.00 | 0.00 | 33 | 999.7 |
| 20260509162155 | 51 | 276 | 10.4 | 20.9 | 0.00 | 0.00 | 0.00 | 33 | 999.7 |
| 20260509161833 | 51 | 320 | 13.9 | 20.9 | 0.00 | 0.00 | 0.00 | 32 | 999.5 |
| 20260509161612 | 51 | 342 | 11.3 | 23.5 | 0.00 | 0.00 | 0.00 | 33 | 999.6 |
| 20260509161157 | 50 | 329 | 11.3 | 23.5 | 0.00 | 0.00 | 0.00 | 33 | 999.5 |
| 20260509160701 | 50 | 307 | 14.8 | 20.9 | 0.00 | 0.00 | 0.00 | 33 | 999.5 |
| 20260509160341 | 50 | 289 | 11.3 | 20.9 | 0.00 | 0.00 | 0.00 | 33 | 999.5 |
| 20260509160120 | 50 | 294 | 11.3 | 20.9 | 0.00 | 0.00 | 0.00 | 34 | 999.4 |
| 20260509155627 | 50 | 271 | 13.9 | 25.2 | 0.00 | 0.00 | 0.00 | 33 | 999.4 |
| 20260509155130 | 50 | 306 | 13.0 | 22.6 | 0.00 | 0.00 | 0.00 | 33 | 999.3 |
| 20260509154836 | 49 | 261 | 12.2 | 24.3 | 0.00 | 0.00 | 0.00 | 33 | 999.4 |
| 20260509154657 | 49 | 281 | 12.2 | 24.3 | 0.00 | 0.00 | 0.00 | 33 | 999.4 |
| 20260509154615 | 49 | 281 | 12.2 | 24.3 | 0.00 | 0.00 | 0.00 | 33 | 999.4 |
| 20260509154220 | 49 | 325 | 13.9 | 24.3 | 0.00 | 0.00 | 0.00 | 34 | 999.2 |
| 20260509154137 | 49 | 325 | 13.9 | 24.3 | 0.00 | 0.00 | 0.00 | 34 | 999.2 |
| 20260509153723 | 49 | 307 | 10.4 | 24.3 | 0.00 | 0.00 | 0.00 | 34 | 999.2 |
| 20260509153640 | 49 | 307 | 10.4 | 24.3 | 0.00 | 0.00 | 0.00 | 34 | 999.2 |
| 20260509153349 | 49 | 286 | 14.8 | 25.2 | 0.00 | 0.00 | 0.00 | 34 | 999.0 |
| 20260509153113 | 49 | 304 | 12.2 | 25.2 | 0.00 | 0.00 | 0.00 | 34 | 999.0 |
| 20260509152616 | 49 | 274 | 13.9 | 25.2 | 0.00 | 0.00 | 0.00 | 34 | 998.9 |
| 20260509152222 | 49 | 308 | 13.0 | 20.9 | 0.00 | 0.00 | 0.00 | 33 | 998.9 |
| 20260509152119 | 49 | 308 | 13.0 | 20.9 | 0.00 | 0.00 | 0.00 | 33 | 998.9 |
| 20260509151858 | 49 | 272 | 13.9 | 20.9 | 0.00 | 0.00 | 0.00 | 33 | 998.9 |
| 20260509151619 | 50 | 325 | 15.6 | 26.1 | 0.00 | 0.00 | 0.00 | 33 | 998.8 |
| 20260509151125 | 50 | 268 | 13.9 | 26.1 | 0.00 | 0.00 | 0.00 | 33 | 998.6 |
| 20260509150632 | 50 | 288 | 15.6 | 26.9 | 0.00 | 0.00 | 0.00 | 33 | 998.6 |
| 20260509150414 | 50 | 283 | 13.0 | 22.6 | 0.00 | 0.00 | 0.00 | 33 | 998.5 |
| 20260509150219 | 50 | 292 | 13.0 | 22.6 | 0.00 | 0.00 | 0.00 | 33 | 998.5 |
| 20260509150115 | 50 | 292 | 13.0 | 22.6 | 0.00 | 0.00 | 0.00 | 33 | 998.5 |
| 20260509145623 | 51 | 321 | 13.0 | 21.7 | 0.00 | 0.00 | 0.00 | 34 | 998.4 |
| 20260509145130 | 51 | 302 | 13.0 | 20.9 | 0.00 | 0.00 | 0.00 | 33 | 998.5 |
| 20260509144833 | 51 | 295 | 11.3 | 21.7 | 0.00 | 0.00 | 0.00 | 33 | 998.2 |
| 20260509144615 | 51 | 319 | 11.3 | 21.7 | 0.00 | 0.00 | 0.00 | 33 | 998.2 |
| 20260509144123 | 51 | 307 | 13.9 | 23.5 | 0.00 | 0.00 | 0.00 | 33 | 998.1 |
| 20260509143709 | 51 | 302 | 11.3 | 20.0 | 0.00 | 0.00 | 0.00 | 33 | 998.1 |
| 20260509143329 | 51 | 288 | 8.7 | 16.5 | 0.00 | 0.00 | 0.00 | 35 | 998.1 |
| 20260509143129 | 51 | 298 | 9.6 | 16.5 | 0.00 | 0.00 | 0.00 | 35 | 998.0 |
| 20260509142615 | 50 | 297 | 10.4 | 18.2 | 0.00 | 0.00 | 0.00 | 35 | 998.0 |
| 20260509142122 | 50 | 320 | 7.8 | 15.6 | 0.00 | 0.00 | 0.00 | 37 | 997.9 |
| 20260509141822 | 50 | 286 | 10.4 | 15.6 | 0.00 | 0.00 | 0.00 | 37 | 997.9 |
| 20260509141643 | 50 | 273 | 9.6 | 15.6 | 0.00 | 0.00 | 0.00 | 38 | 997.9 |
| 20260509141205 | 50 | 302 | 7.8 | 14.8 | 0.00 | 0.00 | 0.00 | 39 | 998.0 |
| 20260509140628 | 50 | 294 | 9.6 | 14.8 | 0.00 | 0.00 | 0.00 | 37 | 998.0 |
| 20260509140452 | 50 | 342 | 7.8 | 14.8 | 0.00 | 0.00 | 0.00 | 38 | 997.9 |
| 20260509140410 | 50 | 342 | 7.8 | 14.8 | 0.00 | 0.00 | 0.00 | 38 | 997.9 |
| 20260509140127 | 50 | 294 | 7.8 | 14.8 | 0.00 | 0.00 | 0.00 | 38 | 997.9 |
| 20260509135612 | 49 | 271 | 9.6 | 14.8 | 0.00 | 0.00 | 0.00 | 38 | 997.9 |
| 20260509135117 | 49 | 275 | 7.0 | 18.2 | 0.00 | 0.00 | 0.00 | 40 | 997.9 |
| 20260509135000 | 49 | 311 | 7.8 | 18.2 | 0.00 | 0.00 | 0.00 | 40 | 997.9 |
| 20260509134717 | 49 | 282 | 10.4 | 21.7 | 0.00 | 0.00 | 0.00 | 40 | 998.0 |
| 20260509134138 | 49 | 299 | 10.4 | 21.7 | 0.00 | 0.00 | 0.00 | 40 | 998.0 |
| 20260509133702 | 49 | 299 | 11.3 | 20.0 | 0.00 | 0.00 | 0.00 | 40 | 998.0 |
| 20260509133318 | 49 | 289 | 13.0 | 20.9 | 0.00 | 0.00 | 0.00 | 40 | 998.1 |
| 20260509133201 | 49 | 277 | 8.7 | 16.5 | 0.00 | 0.00 | 0.00 | 42 | 998.0 |
| 20260509132625 | 49 | 298 | 9.6 | 15.6 | 0.00 | 0.00 | 0.00 | 42 | 997.8 |
| 20260509132233 | 49 | 284 | 7.8 | 17.4 | 0.00 | 0.00 | 0.00 | 44 | 997.8 |
| 20260509131913 | 49 | 329 | 8.7 | 20.0 | 0.00 | 0.00 | 0.00 | 44 | 997.9 |
| 20260509131830 | 49 | 329 | 8.7 | 20.0 | 0.00 | 0.00 | 0.00 | 44 | 997.9 |
| 20260509131638 | 49 | 304 | 6.1 | 20.0 | 0.00 | 0.00 | 0.00 | 44 | 997.9 |
| 20260509131118 | 49 | 283 | 8.7 | 17.4 | 0.00 | 0.00 | 0.00 | 46 | 997.7 |
| 20260509130621 | 48 | 268 | 8.7 | 16.5 | 0.00 | 0.00 | 0.00 | 46 | 997.8 |
| 20260509130348 | 48 | 277 | 12.2 | 16.5 | 0.00 | 0.00 | 0.00 | 46 | 997.7 |
| 20260509130150 | 48 | 267 | 8.7 | 16.5 | 0.00 | 0.00 | 0.00 | 48 | 997.8 |
| 20260509125635 | 48 | 282 | 6.1 | 14.8 | 0.00 | 0.00 | 0.00 | 49 | 997.7 |
| 20260509125201 | 48 | 277 | 9.6 | 14.8 | 0.00 | 0.00 | 0.00 | 48 | 997.7 |
| 20260509124921 | 48 | 286 | 7.8 | 14.8 | 0.00 | 0.00 | 0.00 | 49 | 997.8 |
| 20260509124817 | 48 | 286 | 7.8 | 14.8 | 0.00 | 0.00 | 0.00 | 49 | 997.8 |
| 20260509124621 | 48 | 265 | 8.7 | 14.8 | 0.00 | 0.00 | 0.00 | 49 | 997.7 |
| 20260509124126 | 48 | 277 | 9.6 | 14.8 | 0.00 | 0.00 | 0.00 | 50 | 997.7 |
| 20260509123634 | 48 | 306 | 8.7 | 16.5 | 0.00 | 0.00 | 0.00 | 50 | 997.6 |
| 20260509123341 | 48 | 277 | 9.6 | 16.5 | 0.00 | 0.00 | 0.00 | 50 | 997.6 |
| 20260509123121 | 48 | 271 | 8.7 | 16.5 | 0.00 | 0.00 | 0.00 | 51 | 997.5 |
| 20260509122641 | 48 | 275 | 9.6 | 14.8 | 0.00 | 0.00 | 0.00 | 50 | 997.4 |
| 20260509122207 | 48 | 279 | 7.8 | 13.0 | 0.00 | 0.00 | 0.00 | 51 | 997.4 |
| 20260509122124 | 48 | 279 | 7.8 | 13.0 | 0.00 | 0.00 | 0.00 | 51 | 997.4 |
| 20260509121911 | 48 | 294 | 7.8 | 13.0 | 0.00 | 0.00 | 0.00 | 51 | 997.3 |
| 20260509121611 | 48 | 279 | 7.8 | 13.0 | 0.00 | 0.00 | 0.00 | 52 | 997.3 |
| 20260509121156 | 47 | 284 | 7.0 | 13.0 | 0.00 | 0.00 | 0.00 | 56 | 997.3 |
| 20260509120636 | 47 | 275 | 5.2 | 8.7 | 0.00 | 0.00 | 0.00 | 58 | 997.3 |
| 20260509120321 | 47 | 276 | 5.2 | 8.7 | 0.00 | 0.00 | 0.00 | 59 | 997.3 |
| 20260509120121 | 46 | 284 | 2.6 | 7.0 | 0.00 | 0.00 | 0.00 | 59 | 997.2 |
| 20260509115706 | 46 | 249 | 3.5 | 7.0 | 0.00 | 0.01 | 0.00 | 59 | 997.3 |
| 20260509115624 | 46 | 249 | 3.5 | 7.0 | 0.00 | 0.01 | 0.00 | 59 | 997.3 |
| 20260509115131 | 46 | 247 | 4.3 | 7.0 | 0.00 | 0.01 | 0.00 | 59 | 997.3 |
| 20260509114913 | 45 | 244 | 3.5 | 6.1 | 0.00 | 0.01 | 0.00 | 60 | 997.2 |
| 20260509114654 | 45 | 256 | 2.6 | 7.0 | 0.00 | 0.01 | 0.00 | 60 | 997.1 |
| 20260509114611 | 45 | 256 | 2.6 | 7.0 | 0.00 | 0.01 | 0.00 | 60 | 997.1 |
| 20260509114136 | 45 | 261 | 4.3 | 7.0 | 0.00 | 0.01 | 0.00 | 61 | 997.2 |
| 20260509113623 | 45 | 270 | 4.3 | 7.0 | 0.00 | 0.01 | 0.00 | 62 | 997.1 |
| 20260509113344 | 45 | 277 | 2.6 | 6.1 | 0.00 | 0.01 | 0.00 | 61 | 997.1 |
| 20260509113129 | 45 | 284 | 2.6 | 6.1 | 0.00 | 0.01 | 0.00 | 61 | 997.1 |
| 20260509112708 | 44 | 272 | 4.3 | 6.1 | 0.00 | 0.01 | 0.00 | 61 | 997.1 |
| 20260509112148 | 45 | 266 | 3.5 | 4.3 | 0.00 | 0.01 | 0.00 | 60 | 997.1 |
| 20260509111847 | 44 | 298 | 1.7 | 4.3 | 0.00 | 0.01 | 0.00 | 60 | 997.0 |
| 20260509111628 | 44 | 302 | 2.6 | 4.3 | 0.00 | 0.01 | 0.00 | 60 | 996.9 |
| 20260509111233 | 44 | 294 | 1.7 | 5.2 | 0.00 | 0.01 | 0.00 | 59 | 996.9 |
| 20260509110733 | 44 | 336 | 3.5 | 5.2 | 0.00 | 0.01 | 0.00 | 59 | 997.1 |
| 20260509110412 | 44 | 302 | 3.5 | 5.2 | 0.00 | 0.01 | 0.00 | 59 | 997.1 |
| 20260509110329 | 44 | 302 | 3.5 | 5.2 | 0.00 | 0.01 | 0.00 | 59 | 997.1 |
| 20260509110113 | 45 | 322 | 3.5 | 5.2 | 0.00 | 0.01 | 0.00 | 59 | 997.1 |
| 20260509105639 | 45 | 321 | 3.5 | 7.8 | 0.00 | 0.01 | 0.00 | 59 | 997.1 |
| 20260509105205 | 45 | 305 | 4.3 | 10.4 | 0.00 | 0.01 | 0.00 | 59 | 997.1 |
| 20260509105122 | 45 | 305 | 4.3 | 10.4 | 0.00 | 0.01 | 0.00 | 59 | 997.1 |
| 20260509104843 | 45 | 302 | 4.3 | 10.4 | 0.00 | 0.01 | 0.00 | 59 | 997.1 |
| 20260509104729 | 45 | 333 | 4.3 | 11.3 | 0.00 | 0.01 | 0.00 | 59 | 997.2 |
| 20260509104114 | 45 | 330 | 6.1 | 11.3 | 0.00 | 0.01 | 0.00 | 59 | 997.2 |
| 20260509103714 | 45 | 322 | 7.0 | 11.3 | 0.00 | 0.01 | 0.00 | 60 | 997.1 |
| 20260509103315 | 45 | 275 | 6.1 | 10.4 | 0.00 | 0.01 | 0.00 | 60 | 997.1 |
| 20260509103139 | 45 | 329 | 6.1 | 10.4 | 0.00 | 0.01 | 0.00 | 60 | 997.1 |
| 20260509102720 | 45 | 310 | 7.0 | 10.4 | 0.00 | 0.01 | 0.00 | 63 | 997.2 |
| 20260509102616 | 45 | 310 | 7.0 | 10.4 | 0.00 | 0.01 | 0.00 | 63 | 997.2 |
| 20260509102123 | 45 | 282 | 4.3 | 13.0 | 0.00 | 0.01 | 0.00 | 65 | 997.2 |
| 20260509101905 | 44 | 309 | 5.2 | 13.0 | 0.00 | 0.01 | 0.00 | 66 | 997.2 |
| 20260509101706 | 44 | 281 | 7.0 | 13.9 | 0.00 | 0.01 | 0.00 | 66 | 997.4 |
| 20260509101148 | 44 | 284 | 7.8 | 13.9 | 0.00 | 0.01 | 0.00 | 65 | 997.5 |
| 20260509100614 | 43 | 267 | 7.0 | 10.4 | 0.00 | 0.01 | 0.00 | 66 | 997.3 |
| 20260509100420 | 43 | 271 | 6.1 | 10.4 | 0.00 | 0.01 | 0.00 | 67 | 997.2 |
| 20260509100338 | 43 | 271 | 6.1 | 10.4 | 0.00 | 0.01 | 0.00 | 67 | 997.2 |
| 20260509100221 | 43 | 283 | 6.1 | 10.4 | 0.00 | 0.01 | 0.00 | 67 | 997.1 |
| 20260509095719 | 43 | 269 | 7.0 | 10.4 | 0.00 | 0.01 | 0.00 | 67 | 997.1 |
| 20260509095222 | 43 | 273 | 7.8 | 10.4 | 0.00 | 0.01 | 0.00 | 67 | 996.9 |
| 20260509095118 | 43 | 273 | 7.8 | 10.4 | 0.00 | 0.01 | 0.00 | 67 | 996.9 |
| 20260509094921 | 43 | 275 | 7.8 | 9.6 | 0.00 | 0.01 | 0.00 | 67 | 996.9 |
| 20260509094721 | 43 | 243 | 7.0 | 9.6 | 0.00 | 0.01 | 0.00 | 67 | 996.9 |
| 20260509094638 | 43 | 243 | 7.0 | 9.6 | 0.00 | 0.01 | 0.00 | 67 | 996.9 |
| 20260509094223 | 42 | 266 | 5.2 | 7.8 | 0.00 | 0.01 | 0.00 | 68 | 996.8 |
| 20260509093706 | 43 | 241 | 4.3 | 7.0 | 0.00 | 0.01 | 0.00 | 68 | 996.7 |
| 20260509093407 | 43 | 251 | 4.3 | 7.8 | 0.00 | 0.01 | 0.00 | 67 | 996.7 |
| 20260509093208 | 43 | 240 | 2.6 | 7.8 | 0.00 | 0.01 | 0.00 | 67 | 996.7 |
| 20260509093126 | 43 | 240 | 2.6 | 7.8 | 0.00 | 0.01 | 0.00 | 67 | 996.7 |
| 20260509092731 | 43 | 279 | 5.2 | 7.8 | 0.00 | 0.01 | 0.00 | 67 | 996.8 |
| 20260509092114 | 43 | 290 | 3.5 | 7.8 | 0.00 | 0.01 | 0.00 | 67 | 996.8 |
| 20260509091816 | 43 | 300 | 4.3 | 7.8 | 0.00 | 0.01 | 0.00 | 69 | 996.8 |
| 20260509091622 | 42 | 295 | 2.6 | 7.0 | 0.00 | 0.01 | 0.00 | 70 | 996.7 |
| 20260509091202 | 42 | 286 | 3.5 | 6.1 | 0.00 | 0.01 | 0.00 | 71 | 996.8 |
| 20260509090646 | 41 | 281 | 3.5 | 6.1 | 0.00 | 0.01 | 0.00 | 73 | 996.8 |
| 20260509090426 | 41 | 301 | 3.5 | 7.8 | 0.00 | 0.01 | 0.00 | 73 | 996.8 |
| 20260509090129 | 41 | 311 | 3.5 | 7.8 | 0.00 | 0.01 | 0.00 | 73 | 996.9 |
| 20260509085709 | 41 | 285 | 5.2 | 7.8 | 0.00 | 0.01 | 0.00 | 74 | 996.9 |
| 20260509085130 | 41 | 277 | 3.5 | 7.0 | 0.00 | 0.01 | 0.00 | 74 | 996.8 |
| 20260509084857 | 41 | 275 | 2.6 | 6.1 | 0.00 | 0.01 | 0.00 | 74 | 996.8 |
| 20260509084814 | 41 | 275 | 2.6 | 6.1 | 0.00 | 0.01 | 0.00 | 74 | 996.8 |
| 20260509084635 | 41 | 275 | 2.6 | 6.1 | 0.00 | 0.01 | 0.00 | 74 | 996.8 |
| 20260509084201 | 40 | 294 | 2.6 | 7.8 | 0.00 | 0.01 | 0.00 | 74 | 997.0 |
| 20260509083642 | 41 | 279 | 6.1 | 7.8 | 0.00 | 0.01 | 0.00 | 73 | 997.1 |
| 20260509083428 | 41 | 279 | 4.3 | 7.0 | 0.00 | 0.01 | 0.00 | 73 | 996.9 |
| 20260509083324 | 41 | 279 | 4.3 | 7.0 | 0.00 | 0.01 | 0.00 | 73 | 996.9 |
| 20260509083128 | 41 | 269 | 4.3 | 7.0 | 0.00 | 0.01 | 0.00 | 73 | 997.0 |
| 20260509082613 | 41 | 261 | 3.5 | 6.1 | 0.00 | 0.01 | 0.00 | 73 | 996.9 |
| 20260509082139 | 41 | 274 | 1.7 | 4.3 | 0.00 | 0.01 | 0.00 | 73 | 996.9 |
| 20260509081900 | 41 | 263 | 1.7 | 4.3 | 0.00 | 0.01 | 0.00 | 73 | 996.8 |
| 20260509081627 | 41 | 263 | 2.6 | 4.3 | 0.00 | 0.01 | 0.00 | 73 | 996.8 |
| 20260509081208 | 41 | 279 | 2.6 | 4.3 | 0.00 | 0.01 | 0.00 | 72 | 996.9 |
| 20260509081126 | 41 | 279 | 2.6 | 4.3 | 0.00 | 0.01 | 0.00 | 72 | 996.9 |
| 20260509080633 | 41 | 272 | 2.6 | 3.5 | 0.00 | 0.01 | 0.00 | 72 | 996.9 |
| 20260509080318 | 40 | 263 | 2.6 | 3.5 | 0.00 | 0.01 | 0.00 | 73 | 996.9 |
| 20260509080122 | 40 | 257 | 1.7 | 3.5 | 0.00 | 0.01 | 0.00 | 73 | 996.9 |
| 20260509075629 | 40 | 252 | 1.7 | 3.5 | 0.00 | 0.01 | 0.00 | 73 | 996.9 |
| 20260509075156 | 41 | 250 | 2.6 | 3.5 | 0.00 | 0.01 | 0.00 | 73 | 997.0 |
| 20260509074814 | 41 | 264 | 2.6 | 3.5 | 0.00 | 0.01 | 0.00 | 73 | 997.0 |
| 20260509074622 | 41 | 265 | 1.7 | 2.6 | 0.00 | 0.01 | 0.00 | 72 | 997.0 |
| 20260509074128 | 41 | 265 | 1.7 | 5.2 | 0.00 | 0.01 | 0.00 | 72 | 997.1 |
| 20260509073615 | 41 | 267 | 2.6 | 5.2 | 0.00 | 0.01 | 0.00 | 72 | 997.1 |
| 20260509073414 | 41 | 278 | 2.6 | 5.2 | 0.00 | 0.01 | 0.00 | 72 | 997.2 |
| 20260509073133 | 42 | 207 | 1.7 | 2.6 | 0.00 | 0.01 | 0.00 | 71 | 997.2 |
| 20260509072658 | 42 | 207 | 1.7 | 3.5 | 0.00 | 0.01 | 0.00 | 70 | 997.2 |
| 20260509072202 | 43 | 207 | 2.6 | 6.1 | 0.00 | 0.01 | 0.00 | 70 | 997.2 |
| 20260509071843 | 43 | 205 | 2.6 | 6.1 | 0.00 | 0.01 | 0.00 | 70 | 997.3 |
| 20260509071725 | 42 | 204 | 2.6 | 6.1 | 0.00 | 0.01 | 0.00 | 71 | 997.2 |
| 20260509071148 | 41 | 201 | 2.6 | 5.2 | 0.00 | 0.01 | 0.00 | 73 | 997.4 |
| 20260509070654 | 40 | 209 | 2.6 | 4.3 | 0.00 | 0.01 | 0.00 | 75 | 997.5 |
| 20260509070611 | 40 | 209 | 2.6 | 4.3 | 0.00 | 0.01 | 0.00 | 75 | 997.5 |
| 20260509070432 | 39 | 219 | 1.7 | 3.5 | 0.00 | 0.01 | 0.00 | 75 | 997.5 |
| 20260509070159 | 39 | 217 | 0.9 | 1.7 | 0.00 | 0.01 | 0.00 | 75 | 997.5 |
| 20260509065612 | 39 | 217 | 0.9 | 3.5 | 0.00 | 0.01 | 0.00 | 75 | 997.6 |
| 20260509065117 | 39 | 217 | 1.7 | 3.5 | 0.00 | 0.01 | 0.00 | 75 | 997.7 |
| 20260509064940 | 38 | 216 | 2.6 | 3.5 | 0.00 | 0.01 | 0.00 | 75 | 997.7 |
| 20260509064857 | 38 | 216 | 2.6 | 3.5 | 0.00 | 0.01 | 0.00 | 75 | 997.7 |
| 20260509064728 | 38 | 197 | 1.7 | 2.6 | 0.00 | 0.01 | 0.00 | 74 | 997.7 |
| 20260509064624 | 38 | 197 | 1.7 | 2.6 | 0.00 | 0.01 | 0.00 | 74 | 997.7 |
| 20260509064157 | 38 | 130 | 0.0 | 0.9 | 0.00 | 0.01 | 0.00 | 74 | 997.7 |
| 20260509063625 | 38 | 130 | 0.0 | 0.9 | 0.00 | 0.01 | 0.00 | 73 | 997.9 |
| 20260509063406 | 39 | 130 | 0.0 | 0.9 | 0.00 | 0.01 | 0.00 | 72 | 997.9 |
| 20260509063324 | 39 | 130 | 0.0 | 0.9 | 0.00 | 0.01 | 0.00 | 72 | 997.9 |
| 20260509063126 | 39 | 130 | 0.0 | 1.7 | 0.00 | 0.01 | 0.00 | 71 | 997.9 |
| 20260509062649 | 40 | 130 | 0.9 | 1.7 | 0.00 | 0.01 | 0.00 | 69 | 998.0 |
| 20260509062135 | 41 | 130 | 0.9 | 2.6 | 0.00 | 0.01 | 0.00 | 70 | 998.1 |
| 20260509061820 | 40 | 130 | 0.9 | 2.6 | 0.00 | 0.01 | 0.00 | 71 | 998.1 |
| 20260509061624 | 40 | 130 | 0.9 | 2.6 | 0.00 | 0.01 | 0.00 | 72 | 998.2 |
| 20260509061131 | 38 | 115 | 0.9 | 2.6 | 0.00 | 0.01 | 0.00 | 75 | 998.3 |
| 20260509060614 | 37 | 112 | 0.9 | 2.6 | 0.00 | 0.01 | 0.00 | 73 | 998.4 |
| 20260509060314 | 37 | 112 | 0.0 | 0.9 | 0.00 | 0.01 | 0.00 | 73 | 998.5 |
| 20260509060125 | 37 | 112 | 0.0 | 0.9 | 0.00 | 0.01 | 0.00 | 72 | 998.6 |
| 20260509055658 | 38 | 112 | 0.0 | 0.9 | 0.00 | 0.01 | 0.00 | 72 | 998.6 |
| 20260509055616 | 38 | 112 | 0.0 | 0.9 | 0.00 | 0.01 | 0.00 | 72 | 998.6 |
| 20260509055222 | 39 | 112 | 0.0 | 0.0 | 0.00 | 0.01 | 0.00 | 72 | 998.8 |
| 20260509055119 | 39 | 112 | 0.0 | 0.0 | 0.00 | 0.01 | 0.00 | 72 | 998.8 |
| 20260509054920 | 38 | 112 | 0.0 | 0.0 | 0.00 | 0.01 | 0.00 | 71 | 998.9 |
| 20260509054729 | 39 | 112 | 0.0 | 0.0 | 0.00 | 0.01 | 0.00 | 71 | 999.0 |
| 20260509054200 | 39 | 112 | 0.0 | 0.0 | 0.00 | 0.01 | 0.00 | 70 | 998.9 |
| 20260509053704 | 40 | 112 | 0.0 | 0.0 | 0.00 | 0.01 | 0.00 | 69 | 998.9 |
| 20260509053621 | 40 | 112 | 0.0 | 0.0 | 0.00 | 0.01 | 0.00 | 69 | 998.9 |
| 20260509053344 | 40 | 112 | 0.0 | 0.0 | 0.00 | 0.01 | 0.00 | 69 | 998.9 |
| 20260509053214 | 40 | 112 | 0.0 | 0.0 | 0.00 | 0.01 | 0.00 | 69 | 998.9 |
| 20260509052640 | 40 | 112 | 0.0 | 0.0 | 0.00 | 0.01 | 0.00 | 68 | 999.1 |
| 20260509052142 | 40 | 112 | 0.0 | 0.9 | 0.00 | 0.01 | 0.00 | 67 | 999.1 |
| 20260509051903 | 40 | 112 | 0.0 | 0.9 | 0.00 | 0.01 | 0.00 | 67 | 999.1 |
| 20260509051724 | 40 | 112 | 0.0 | 0.9 | 0.00 | 0.01 | 0.00 | 66 | 999.2 |
| 20260509051641 | 40 | 112 | 0.0 | 0.9 | 0.00 | 0.01 | 0.00 | 66 | 999.2 |
| 20260509051146 | 40 | 112 | 0.0 | 0.9 | 0.00 | 0.01 | 0.00 | 66 | 999.2 |
| 20260509050711 | 41 | 112 | 0.0 | 1.7 | 0.00 | 0.01 | 0.00 | 65 | 999.4 |
| 20260509050349 | 41 | 112 | 0.0 | 1.7 | 0.00 | 0.01 | 0.00 | 65 | 999.4 |
| 20260509050127 | 41 | 112 | 0.0 | 1.7 | 0.00 | 0.01 | 0.00 | 65 | 999.4 |
| 20260509045614 | 41 | 112 | 0.0 | 3.5 | 0.00 | 0.01 | 0.00 | 64 | 999.6 |
| 20260509045135 | 41 | 112 | 0.9 | 3.5 | 0.00 | 0.01 | 0.00 | 64 | 999.7 |
| 20260509044857 | 41 | 105 | 0.9 | 3.5 | 0.00 | 0.01 | 0.00 | 64 | 999.6 |
| 20260509044814 | 41 | 105 | 0.9 | 3.5 | 0.00 | 0.01 | 0.00 | 64 | 999.6 |
| 20260509044657 | 42 | 105 | 0.9 | 3.5 | 0.00 | 0.01 | 0.00 | 64 | 999.7 |
| 20260509044121 | 42 | 109 | 0.0 | 2.6 | 0.00 | 0.01 | 0.00 | 62 | 999.8 |
| 20260509043706 | 42 | 109 | 0.9 | 2.6 | 0.00 | 0.01 | 0.00 | 60 | 1000.0 |
| 20260509043345 | 42 | 109 | 0.0 | 1.7 | 0.00 | 0.01 | 0.00 | 59 | 1000.1 |
| 20260509043150 | 42 | 109 | 0.0 | 1.7 | 0.00 | 0.01 | 0.00 | 60 | 1000.1 |
| 20260509042615 | 43 | 109 | 0.9 | 1.7 | 0.00 | 0.01 | 0.00 | 57 | 1000.2 |
| 20260509042114 | 44 | 109 | 0.9 | 3.5 | 0.00 | 0.01 | 0.00 | 56 | 1000.4 |
| 20260509041841 | 44 | 109 | 0.9 | 3.5 | 0.00 | 0.01 | 0.00 | 55 | 1000.3 |
| 20260509041703 | 44 | 109 | 1.7 | 3.5 | 0.00 | 0.01 | 0.00 | 55 | 1000.4 |
| 20260509041126 | 45 | 109 | 1.7 | 3.5 | 0.00 | 0.01 | 0.00 | 55 | 1000.5 |
| 20260509040614 | 44 | 110 | 0.9 | 3.5 | 0.00 | 0.01 | 0.00 | 55 | 1000.6 |
| 20260509040418 | 45 | 109 | 1.7 | 3.5 | 0.00 | 0.01 | 0.00 | 54 | 1000.6 |
| 20260509040335 | 45 | 109 | 1.7 | 3.5 | 0.00 | 0.01 | 0.00 | 54 | 1000.6 |
| 20260509040158 | 45 | 109 | 2.6 | 3.5 | 0.00 | 0.01 | 0.00 | 53 | 1000.7 |
| 20260509035645 | 44 | 108 | 0.9 | 3.5 | 0.00 | 0.01 | 0.01 | 54 | 1000.9 |
| 20260509035230 | 44 | 108 | 0.9 | 3.5 | 0.00 | 0.01 | 0.01 | 53 | 1000.9 |
| 20260509035148 | 44 | 108 | 0.9 | 3.5 | 0.00 | 0.01 | 0.01 | 53 | 1000.9 |
| 20260509034910 | 44 | 110 | 0.9 | 2.6 | 0.00 | 0.01 | 0.01 | 53 | 1000.9 |
| 20260509034611 | 44 | 110 | 0.9 | 2.6 | 0.00 | 0.01 | 0.01 | 53 | 1000.9 |
| 20260509034117 | 44 | 110 | 0.9 | 6.1 | 0.00 | 0.01 | 0.01 | 52 | 1001.0 |
| 20260509033642 | 44 | 105 | 0.9 | 6.1 | 0.00 | 0.01 | 0.01 | 51 | 1001.0 |
| 20260509033327 | 44 | 116 | 2.6 | 6.1 | 0.00 | 0.01 | 0.01 | 50 | 1001.1 |
| 20260509033148 | 43 | 118 | 1.7 | 3.5 | 0.00 | 0.01 | 0.01 | 51 | 1001.1 |
| 20260509032655 | 43 | 119 | 0.9 | 3.5 | 0.00 | 0.01 | 0.01 | 52 | 1001.1 |
| 20260509032219 | 42 | 120 | 1.7 | 3.5 | 0.00 | 0.01 | 0.01 | 55 | 1001.3 |
| 20260509032115 | 42 | 120 | 1.7 | 3.5 | 0.00 | 0.01 | 0.01 | 55 | 1001.3 |
| 20260509031813 | 42 | 117 | 0.9 | 3.5 | 0.00 | 0.01 | 0.01 | 55 | 1001.3 |
| 20260509031656 | 42 | 117 | 0.9 | 3.5 | 0.00 | 0.01 | 0.01 | 55 | 1001.3 |
| 20260509031200 | 42 | 117 | 1.7 | 3.5 | 0.00 | 0.01 | 0.01 | 55 | 1001.3 |
| 20260509031118 | 42 | 117 | 1.7 | 3.5 | 0.00 | 0.01 | 0.01 | 55 | 1001.3 |
| 20260509030721 | 43 | 124 | 1.7 | 3.5 | 0.00 | 0.01 | 0.01 | 52 | 1001.4 |
| 20260509030339 | 43 | 134 | 0.9 | 3.5 | 0.00 | 0.01 | 0.01 | 52 | 1001.4 |
| 20260509030202 | 43 | 136 | 0.9 | 3.5 | 0.00 | 0.01 | 0.01 | 52 | 1001.5 |
| 20260509025726 | 43 | 103 | 0.0 | 0.9 | 0.00 | 0.03 | 0.01 | 51 | 1001.6 |
| 20260509025623 | 43 | 103 | 0.0 | 0.9 | 0.00 | 0.03 | 0.01 | 51 | 1001.6 |
| 20260509025226 | 43 | 103 | 0.0 | 0.9 | 0.00 | 0.03 | 0.01 | 51 | 1001.7 |
| 20260509025144 | 43 | 103 | 0.0 | 0.9 | 0.00 | 0.03 | 0.01 | 51 | 1001.7 |
| 20260509024849 | 43 | 103 | 0.0 | 0.9 | 0.00 | 0.03 | 0.01 | 51 | 1001.7 |
| 20260509024650 | 43 | 103 | 0.0 | 0.9 | 0.00 | 0.03 | 0.01 | 51 | 1001.7 |
| 20260509024133 | 43 | 103 | 0.0 | 0.9 | 0.00 | 0.03 | 0.01 | 49 | 1001.8 |
| 20260509023700 | 44 | 103 | 0.0 | 0.9 | 0.00 | 0.03 | 0.01 | 50 | 1001.7 |
| 20260509023359 | 44 | 103 | 0.0 | 1.7 | 0.00 | 0.03 | 0.01 | 51 | 1001.7 |
| 20260509023138 | 44 | 103 | 0.0 | 1.7 | 0.00 | 0.03 | 0.01 | 52 | 1001.7 |
| 20260509022703 | 44 | 103 | 0.0 | 2.6 | 0.00 | 0.03 | 0.01 | 51 | 1001.8 |
| 20260509022620 | 44 | 103 | 0.0 | 2.6 | 0.00 | 0.03 | 0.01 | 51 | 1001.8 |
| 20260509022207 | 44 | 103 | 1.7 | 2.6 | 0.00 | 0.03 | 0.01 | 50 | 1001.7 |
| 20260509021827 | 45 | 103 | 1.7 | 2.6 | 0.00 | 0.03 | 0.01 | 52 | 1001.6 |
| 20260509021653 | 45 | 97 | 0.9 | 2.6 | 0.00 | 0.03 | 0.01 | 48 | 1001.7 |
| 20260509021211 | 45 | 97 | 0.9 | 3.5 | 0.00 | 0.03 | 0.01 | 47 | 1001.7 |
| 20260509020617 | 45 | 96 | 0.9 | 3.5 | 0.00 | 0.03 | 0.01 | 46 | 1001.8 |
| 20260509020323 | 45 | 90 | 0.9 | 3.5 | 0.00 | 0.03 | 0.01 | 47 | 1001.8 |
| 20260509020226 | 45 | 89 | 0.9 | 3.5 | 0.00 | 0.03 | 0.01 | 47 | 1001.8 |
| 20260509020122 | 45 | 89 | 0.9 | 3.5 | 0.00 | 0.03 | 0.01 | 47 | 1001.8 |
| 20260509015625 | 46 | 90 | 0.9 | 3.5 | 0.00 | 0.03 | 0.01 | 47 | 1001.9 |
| 20260509015228 | 46 | 89 | 0.9 | 3.5 | 0.00 | 0.03 | 0.01 | 48 | 1001.9 |
| 20260509015146 | 46 | 89 | 0.9 | 3.5 | 0.00 | 0.03 | 0.01 | 48 | 1001.9 |
| 20260509014811 | 46 | 88 | 0.9 | 3.5 | 0.00 | 0.03 | 0.01 | 47 | 1001.9 |
| 20260509014654 | 46 | 89 | 1.7 | 3.5 | 0.00 | 0.03 | 0.01 | 46 | 1001.9 |
| 20260509014219 | 46 | 89 | 1.7 | 3.5 | 0.00 | 0.03 | 0.01 | 45 | 1001.9 |
| 20260509014136 | 46 | 89 | 1.7 | 3.5 | 0.00 | 0.03 | 0.01 | 45 | 1001.9 |
| 20260509013640 | 47 | 89 | 0.9 | 3.5 | 0.00 | 0.03 | 0.01 | 44 | 1002.0 |
| 20260509013319 | 47 | 73 | 1.7 | 2.6 | 0.00 | 0.03 | 0.01 | 42 | 1002.0 |
| 20260509013223 | 47 | 62 | 0.9 | 3.5 | 0.00 | 0.03 | 0.01 | 41 | 1002.1 |
| 20260509013140 | 47 | 62 | 0.9 | 3.5 | 0.00 | 0.03 | 0.01 | 41 | 1002.1 |
| 20260509012645 | 47 | 61 | 0.9 | 3.5 | 0.00 | 0.03 | 0.01 | 42 | 1002.1 |
| 20260509012112 | 47 | 61 | 1.7 | 4.3 | 0.00 | 0.03 | 0.01 | 43 | 1002.0 |
| 20260509011836 | 48 | 61 | 1.7 | 4.3 | 0.00 | 0.03 | 0.01 | 41 | 1002.1 |
| 20260509011636 | 48 | 61 | 2.6 | 4.3 | 0.00 | 0.03 | 0.01 | 40 | 1002.1 |
| 20260509011202 | 48 | 66 | 1.7 | 3.5 | 0.00 | 0.03 | 0.01 | 39 | 1002.3 |
| 20260509011120 | 48 | 66 | 1.7 | 3.5 | 0.00 | 0.03 | 0.01 | 39 | 1002.3 |
| 20260509010701 | 48 | 66 | 1.7 | 4.3 | 0.00 | 0.03 | 0.01 | 40 | 1002.4 |
| 20260509010426 | 48 | 66 | 2.6 | 5.2 | 0.00 | 0.03 | 0.01 | 39 | 1002.5 |
| 20260509010344 | 48 | 66 | 2.6 | 5.2 | 0.00 | 0.03 | 0.01 | 39 | 1002.5 |
| 20260509010205 | 48 | 67 | 1.7 | 5.2 | 0.00 | 0.03 | 0.01 | 40 | 1002.5 |
| 20260509010123 | 48 | 67 | 1.7 | 5.2 | 0.00 | 0.03 | 0.01 | 40 | 1002.5 |
| 20260509005729 | 48 | 73 | 1.7 | 8.7 | 0.00 | 0.03 | 0.01 | 39 | 1002.4 |
| 20260509005626 | 48 | 73 | 1.7 | 8.7 | 0.00 | 0.03 | 0.01 | 39 | 1002.4 |
| 20260509005113 | 49 | 80 | 2.6 | 8.7 | 0.00 | 0.03 | 0.01 | 40 | 1002.3 |
| 20260509004815 | 49 | 69 | 3.5 | 8.7 | 0.00 | 0.03 | 0.01 | 39 | 1002.2 |
| 20260509004635 | 49 | 65 | 3.5 | 7.0 | 0.00 | 0.03 | 0.01 | 39 | 1002.2 |
| 20260509004121 | 49 | 97 | 2.6 | 7.0 | 0.00 | 0.03 | 0.01 | 39 | 1002.3 |
| 20260509003728 | 49 | 128 | 2.6 | 7.0 | 0.00 | 0.03 | 0.01 | 41 | 1002.3 |
| 20260509003625 | 49 | 128 | 2.6 | 7.0 | 0.00 | 0.03 | 0.01 | 41 | 1002.3 |
| 20260509003405 | 49 | 100 | 1.7 | 6.1 | 0.00 | 0.03 | 0.01 | 41 | 1002.2 |
| 20260509003227 | 49 | 105 | 0.9 | 5.2 | 0.00 | 0.03 | 0.01 | 41 | 1002.2 |
| 20260509002729 | 50 | 83 | 3.5 | 5.2 | 0.00 | 0.03 | 0.01 | 39 | 1002.3 |
| 20260509002626 | 50 | 83 | 3.5 | 5.2 | 0.00 | 0.03 | 0.01 | 39 | 1002.3 |
| 20260509002154 | 50 | 116 | 2.6 | 6.1 | 0.00 | 0.03 | 0.01 | 38 | 1002.3 |
| 20260509001853 | 50 | 102 | 1.7 | 6.1 | 0.00 | 0.03 | 0.01 | 38 | 1002.3 |
| 20260509001620 | 50 | 102 | 2.6 | 6.1 | 0.00 | 0.03 | 0.01 | 38 | 1002.3 |
| 20260509001126 | 50 | 119 | 1.7 | 5.2 | 0.00 | 0.03 | 0.01 | 39 | 1002.4 |
| 20260509000614 | 50 | 121 | 2.6 | 5.2 | 0.00 | 0.03 | 0.01 | 38 | 1002.5 |
| 20260509000336 | 50 | 81 | 0.9 | 4.3 | 0.00 | 0.03 | 0.01 | 39 | 1002.4 |
| 20260509000117 | 50 | 80 | 1.7 | 4.3 | 0.00 | 0.03 | 0.01 | 39 | 1002.3 |
| 20260508235723 | 50 | 108 | 2.6 | 5.2 | 0.00 | 0.03 | 0.01 | 39 | 1002.4 |
| 20260508235128 | 50 | 142 | 0.9 | 6.1 | 0.00 | 0.03 | 0.01 | 39 | 1002.6 |
| 20260508234832 | 50 | 144 | 1.7 | 6.1 | 0.00 | 0.03 | 0.01 | 38 | 1002.6 |
| 20260508234620 | 50 | 105 | 0.9 | 3.5 | 0.00 | 0.03 | 0.01 | 39 | 1002.6 |
| 20260508234127 | 51 | 97 | 1.7 | 3.5 | 0.00 | 0.03 | 0.01 | 39 | 1002.5 |
| 20260508233712 | 51 | 109 | 0.9 | 2.6 | 0.00 | 0.03 | 0.01 | 38 | 1002.6 |
| 20260508233433 | 51 | 109 | 0.9 | 6.1 | 0.00 | 0.03 | 0.01 | 38 | 1002.6 |
| 20260508233351 | 51 | 109 | 0.9 | 6.1 | 0.00 | 0.03 | 0.01 | 38 | 1002.6 |
| 20260508233138 | 51 | 104 | 0.9 | 7.0 | 0.00 | 0.03 | 0.01 | 38 | 1002.6 |
| 20260508232611 | 51 | 103 | 2.6 | 7.0 | 0.00 | 0.03 | 0.01 | 37 | 1002.5 |
| 20260508232118 | 51 | 109 | 2.6 | 7.0 | 0.00 | 0.03 | 0.01 | 38 | 1002.6 |
| 20260508231940 | 51 | 65 | 1.7 | 7.0 | 0.00 | 0.03 | 0.01 | 40 | 1002.6 |
| 20260508231646 | 51 | 87 | 2.6 | 7.0 | 0.00 | 0.03 | 0.01 | 37 | 1002.7 |
| 20260508231118 | 51 | 79 | 2.6 | 6.1 | 0.00 | 0.03 | 0.01 | 37 | 1002.7 |
| 20260508230625 | 51 | 108 | 2.6 | 6.1 | 0.00 | 0.03 | 0.01 | 38 | 1002.6 |
| 20260508230347 | 51 | 103 | 2.6 | 7.0 | 0.00 | 0.03 | 0.01 | 38 | 1002.7 |
| 20260508230121 | 51 | 94 | 2.6 | 7.0 | 0.00 | 0.03 | 0.01 | 38 | 1002.7 |
| 20260508225711 | 51 | 102 | 4.3 | 9.6 | 0.00 | 0.03 | 0.01 | 38 | 1002.7 |
| 20260508225628 | 51 | 102 | 4.3 | 9.6 | 0.00 | 0.03 | 0.01 | 38 | 1002.7 |
| 20260508225222 | 51 | 121 | 6.1 | 9.6 | 0.00 | 0.03 | 0.01 | 38 | 1002.7 |
| 20260508225140 | 51 | 121 | 6.1 | 9.6 | 0.00 | 0.03 | 0.01 | 38 | 1002.7 |
| 20260508224900 | 51 | 98 | 4.3 | 9.6 | 0.00 | 0.03 | 0.01 | 37 | 1002.7 |
| 20260508224633 | 51 | 101 | 5.2 | 9.6 | 0.00 | 0.03 | 0.01 | 38 | 1002.8 |
| 20260508224142 | 52 | 92 | 4.3 | 8.7 | 0.00 | 0.03 | 0.01 | 39 | 1002.7 |
| 20260508223625 | 51 | 100 | 4.3 | 8.7 | 0.00 | 0.03 | 0.01 | 37 | 1002.7 |
| 20260508223332 | 52 | 78 | 5.2 | 8.7 | 0.00 | 0.03 | 0.01 | 36 | 1002.7 |
| 20260508223113 | 52 | 94 | 3.5 | 8.7 | 0.00 | 0.03 | 0.01 | 37 | 1002.7 |
| 20260508222635 | 52 | 90 | 4.3 | 8.7 | 0.00 | 0.03 | 0.01 | 36 | 1002.8 |
| 20260508222120 | 51 | 88 | 3.5 | 10.4 | 0.00 | 0.03 | 0.01 | 36 | 1002.9 |
| 20260508221901 | 51 | 53 | 2.6 | 10.4 | 0.00 | 0.03 | 0.01 | 35 | 1002.9 |
| 20260508221641 | 51 | 98 | 4.3 | 10.4 | 0.00 | 0.03 | 0.01 | 36 | 1002.8 |
| 20260508221124 | 52 | 100 | 6.1 | 9.6 | 0.00 | 0.03 | 0.01 | 36 | 1002.8 |
| 20260508220708 | 52 | 77 | 3.5 | 9.6 | 0.00 | 0.03 | 0.01 | 38 | 1002.8 |
| 20260508220329 | 52 | 88 | 4.3 | 9.6 | 0.00 | 0.03 | 0.01 | 38 | 1003.0 |
| 20260508220151 | 52 | 80 | 5.2 | 9.6 | 0.00 | 0.03 | 0.01 | 38 | 1003.0 |
| 20260508215616 | 51 | 61 | 5.2 | 11.3 | 0.00 | 0.03 | 0.01 | 39 | 1002.9 |
| 20260508215143 | 52 | 72 | 5.2 | 11.3 | 0.00 | 0.03 | 0.01 | 37 | 1003.0 |
| 20260508214908 | 53 | 92 | 4.3 | 10.4 | 0.00 | 0.03 | 0.01 | 38 | 1003.0 |
| 20260508214650 | 52 | 81 | 3.5 | 10.4 | 0.00 | 0.03 | 0.01 | 37 | 1003.0 |
| 20260508214115 | 52 | 96 | 6.1 | 10.4 | 0.00 | 0.03 | 0.01 | 38 | 1002.8 |
| 20260508213702 | 53 | 101 | 5.2 | 8.7 | 0.00 | 0.03 | 0.01 | 37 | 1003.0 |
| 20260508213620 | 53 | 101 | 5.2 | 8.7 | 0.00 | 0.03 | 0.01 | 37 | 1003.0 |
| 20260508213401 | 53 | 54 | 3.5 | 9.6 | 0.00 | 0.03 | 0.01 | 38 | 1003.0 |
| 20260508213319 | 53 | 54 | 3.5 | 9.6 | 0.00 | 0.03 | 0.01 | 38 | 1003.0 |
| 20260508213123 | 53 | 65 | 5.2 | 9.6 | 0.00 | 0.03 | 0.01 | 37 | 1003.0 |
| 20260508212729 | 53 | 96 | 5.2 | 9.6 | 0.00 | 0.03 | 0.01 | 36 | 1002.9 |
| 20260508212625 | 53 | 96 | 5.2 | 9.6 | 0.00 | 0.03 | 0.01 | 36 | 1002.9 |
| 20260508212127 | 53 | 74 | 4.3 | 10.4 | 0.00 | 0.03 | 0.01 | 36 | 1002.9 |
| 20260508211910 | 54 | 82 | 4.3 | 10.4 | 0.00 | 0.03 | 0.01 | 34 | 1003.0 |
| 20260508211650 | 55 | 71 | 5.2 | 10.4 | 0.00 | 0.03 | 0.01 | 35 | 1002.9 |
| 20260508211134 | 54 | 78 | 6.1 | 9.6 | 0.00 | 0.03 | 0.01 | 36 | 1002.9 |
| 20260508210619 | 54 | 106 | 3.5 | 9.6 | 0.00 | 0.03 | 0.01 | 37 | 1002.9 |
| 20260508210323 | 54 | 113 | 5.2 | 9.6 | 0.00 | 0.03 | 0.01 | 38 | 1002.9 |
| 20260508210123 | 54 | 92 | 4.3 | 9.6 | 0.00 | 0.03 | 0.01 | 38 | 1003.0 |
| 20260508205725 | 53 | 63 | 5.2 | 9.6 | 0.00 | 0.03 | 0.01 | 39 | 1003.0 |
| 20260508205111 | 53 | 88 | 6.1 | 9.6 | 0.00 | 0.03 | 0.01 | 38 | 1003.1 |
| 20260508204853 | 54 | 113 | 5.2 | 11.3 | 0.00 | 0.03 | 0.01 | 39 | 1003.1 |
| 20260508204636 | 54 | 80 | 5.2 | 11.3 | 0.00 | 0.03 | 0.01 | 40 | 1003.1 |
| 20260508204222 | 53 | 93 | 3.5 | 10.4 | 0.00 | 0.03 | 0.01 | 42 | 1003.3 |
| 20260508203626 | 52 | 93 | 5.2 | 10.4 | 0.00 | 0.03 | 0.01 | 40 | 1003.2 |
| 20260508203312 | 52 | 86 | 6.1 | 10.4 | 0.00 | 0.03 | 0.01 | 40 | 1003.2 |
| 20260508203116 | 52 | 71 | 5.2 | 10.4 | 0.00 | 0.03 | 0.01 | 40 | 1003.3 |
| 20260508202641 | 52 | 86 | 5.2 | 9.6 | 0.00 | 0.03 | 0.01 | 40 | 1003.3 |
| 20260508202125 | 52 | 96 | 6.1 | 9.6 | 0.00 | 0.03 | 0.01 | 41 | 1003.3 |
| 20260508201929 | 53 | 95 | 3.5 | 9.6 | 0.00 | 0.03 | 0.01 | 40 | 1003.4 |
| 20260508201706 | 53 | 95 | 4.3 | 9.6 | 0.00 | 0.03 | 0.01 | 41 | 1003.4 |
| 20260508201130 | 52 | 84 | 7.0 | 9.6 | 0.00 | 0.03 | 0.01 | 41 | 1003.6 |